| time (UTC) | temp F | wind direction | speed MPH | gust MPH | rain 1hr in | rain 24hr in | rain mn in | humidity % | barometer mb |
| 20260503233608 | 55 | 243 | 14.0 | 15.0 | 0.00 | 0.00 | 0.00 | 52 | 1030.1 |
| 20260503233059 | 55 | 264 | 7.0 | 19.0 | 0.00 | 0.00 | 0.00 | 53 | 1030.2 |
| 20260503232556 | 54 | 284 | 6.0 | 22.0 | 0.00 | 0.00 | 0.00 | 55 | 1030.2 |
| 20260503232053 | 54 | 266 | 12.0 | 18.0 | 0.00 | 0.00 | 0.00 | 56 | 1030.5 |
| 20260503231551 | 54 | 257 | 16.0 | 17.0 | 0.00 | 0.00 | 0.00 | 56 | 1030.4 |
| 20260503231048 | 54 | 283 | 5.0 | 17.0 | 0.00 | 0.00 | 0.00 | 56 | 1030.4 |
| 20260503230544 | 54 | 266 | 5.0 | 27.0 | 0.00 | 0.00 | 0.00 | 56 | 1030.6 |
| 20260503230042 | 53 | 255 | 8.0 | 13.0 | 0.00 | 0.00 | 0.00 | 58 | 1030.5 |
| 20260503225538 | 53 | 274 | 6.0 | 19.0 | 0.00 | 0.00 | 0.00 | 59 | 1030.7 |
| 20260503225038 | 53 | 257 | 11.0 | 16.0 | 0.00 | 0.00 | 0.00 | 61 | 1030.9 |
| 20260503224536 | 53 | 254 | 7.0 | 15.0 | 0.00 | 0.00 | 0.00 | 62 | 1030.7 |
| 20260503224034 | 53 | 263 | 7.0 | 14.0 | 0.00 | 0.00 | 0.00 | 60 | 1030.9 |
| 20260503223532 | 53 | 271 | 9.0 | 20.0 | 0.00 | 0.00 | 0.00 | 61 | 1030.8 |
| 20260503223027 | 52 | 277 | 10.0 | 16.0 | 0.00 | 0.00 | 0.00 | 61 | 1030.6 |
| 20260503222525 | 53 | 250 | 6.0 | 21.0 | 0.00 | 0.00 | 0.00 | 61 | 1030.5 |
| 20260503222023 | 53 | 236 | 11.0 | 13.0 | 0.00 | 0.00 | 0.00 | 58 | 1030.6 |
| 20260503221521 | 53 | 234 | 4.0 | 15.0 | 0.00 | 0.00 | 0.00 | 58 | 1030.6 |
| 20260503221019 | 54 | 269 | 13.0 | 21.0 | 0.00 | 0.00 | 0.00 | 58 | 1030.3 |
| 20260503220514 | 54 | 245 | 12.0 | 16.0 | 0.00 | 0.00 | 0.00 | 58 | 1030.8 |
| 20260503220011 | 54 | 274 | 10.0 | 18.0 | 0.00 | 0.00 | 0.00 | 56 | 1030.9 |
| 20260503215509 | 55 | 273 | 16.0 | 23.0 | 0.00 | 0.00 | 0.00 | 55 | 1030.8 |
| 20260503215005 | 55 | 262 | 17.0 | 24.0 | 0.00 | 0.00 | 0.00 | 55 | 1030.9 |
| 20260503214504 | 55 | 272 | 14.0 | 21.0 | 0.00 | 0.00 | 0.00 | 54 | 1030.7 |
| 20260503214000 | 55 | 303 | 17.0 | 22.0 | 0.00 | 0.00 | 0.00 | 54 | 1030.7 |
| 20260503213459 | 54 | 238 | 14.0 | 32.0 | 0.00 | 0.00 | 0.00 | 56 | 1030.8 |
| 20260503212954 | 53 | 268 | 19.0 | 20.0 | 0.00 | 0.00 | 0.00 | 59 | 1030.7 |
| 20260503212452 | 53 | 264 | 24.0 | 24.0 | 0.00 | 0.00 | 0.00 | 59 | 1030.8 |
| 20260503211949 | 53 | 244 | 12.0 | 27.0 | 0.00 | 0.00 | 0.00 | 59 | 1030.7 |
| 20260503211447 | 53 | 290 | 9.0 | 20.0 | 0.00 | 0.00 | 0.00 | 59 | 1030.7 |
| 20260503210942 | 53 | 272 | 8.0 | 26.0 | 0.00 | 0.00 | 0.00 | 59 | 1030.7 |
| 20260503210439 | 53 | 262 | 17.0 | 26.0 | 0.00 | 0.00 | 0.00 | 59 | 1030.6 |
| 20260503205934 | 53 | 309 | 8.0 | 22.0 | 0.00 | 0.00 | 0.00 | 60 | 1030.6 |
| 20260503205431 | 53 | 280 | 13.0 | 21.0 | 0.00 | 0.00 | 0.00 | 58 | 1030.6 |
| 20260503204927 | 54 | 286 | 14.0 | 15.0 | 0.00 | 0.00 | 0.00 | 59 | 1030.7 |
| 20260503204425 | 55 | 267 | 8.0 | 23.0 | 0.00 | 0.00 | 0.00 | 58 | 1030.9 |
| 20260503203922 | 55 | 296 | 5.0 | 22.0 | 0.00 | 0.00 | 0.00 | 58 | 1030.7 |
| 20260503203419 | 54 | 273 | 7.0 | 26.0 | 0.00 | 0.00 | 0.00 | 60 | 1031.1 |
| 20260503202916 | 54 | 327 | 9.0 | 18.0 | 0.00 | 0.00 | 0.00 | 58 | 1031.2 |
| 20260503202414 | 54 | 274 | 20.0 | 22.0 | 0.00 | 0.00 | 0.00 | 58 | 1030.7 |
| 20260503201913 | 53 | 268 | 23.0 | 26.0 | 0.00 | 0.00 | 0.00 | 58 | 1031.1 |
| 20260503201409 | 55 | 255 | 17.0 | 30.0 | 0.00 | 0.00 | 0.00 | 56 | 1030.8 |
| 20260503200907 | 54 | 266 | 8.0 | 19.0 | 0.00 | 0.00 | 0.00 | 58 | 1031.2 |
| 20260503200403 | 54 | 266 | 10.0 | 21.0 | 0.00 | 0.00 | 0.00 | 57 | 1031.6 |
| 20260503195900 | 53 | 256 | 8.0 | 21.0 | 0.00 | 0.00 | 0.00 | 59 | 1031.3 |
| 20260503195356 | 53 | 262 | 15.0 | 26.0 | 0.00 | 0.00 | 0.00 | 60 | 1031.1 |
| 20260503194853 | 54 | 313 | 17.0 | 25.0 | 0.00 | 0.00 | 0.00 | 60 | 1031.5 |
| 20260503194350 | 54 | 271 | 6.0 | 24.0 | 0.00 | 0.00 | 0.00 | 57 | 1031.6 |
| 20260503193846 | 53 | 253 | 5.0 | 33.0 | 0.00 | 0.00 | 0.00 | 58 | 1031.7 |
| 20260503193342 | 54 | 280 | 12.0 | 19.0 | 0.00 | 0.00 | 0.00 | 57 | 1031.4 |
| 20260503192838 | 54 | 258 | 8.0 | 21.0 | 0.00 | 0.00 | 0.00 | 56 | 1031.7 |
| 20260503192333 | 54 | 277 | 13.0 | 24.0 | 0.00 | 0.00 | 0.00 | 56 | 1031.7 |
| 20260503191830 | 54 | 243 | 27.0 | 28.0 | 0.00 | 0.00 | 0.00 | 55 | 1031.9 |
| 20260503191327 | 54 | 319 | 19.0 | 25.0 | 0.00 | 0.00 | 0.00 | 53 | 1031.9 |
| 20260503190823 | 54 | 237 | 15.0 | 26.0 | 0.00 | 0.00 | 0.00 | 55 | 1032.0 |
| 20260503190321 | 54 | 295 | 6.0 | 20.0 | 0.00 | 0.00 | 0.00 | 55 | 1031.9 |
| 20260503185818 | 53 | 269 | 13.0 | 19.0 | 0.00 | 0.00 | 0.00 | 56 | 1032.0 |
| 20260503185314 | 53 | 268 | 11.0 | 20.0 | 0.00 | 0.00 | 0.00 | 57 | 1032.3 |
| 20260503184813 | 53 | 266 | 22.0 | 24.0 | 0.00 | 0.00 | 0.00 | 56 | 1032.4 |
| 20260503184310 | 52 | 280 | 11.0 | 35.0 | 0.00 | 0.00 | 0.00 | 59 | 1032.4 |
| 20260503183805 | 53 | 246 | 11.0 | 20.0 | 0.00 | 0.00 | 0.00 | 57 | 1032.0 |
| 20260503183303 | 53 | 263 | 7.0 | 24.0 | 0.00 | 0.00 | 0.00 | 58 | 1032.3 |
| 20260503182800 | 52 | 241 | 13.0 | 23.0 | 0.00 | 0.00 | 0.00 | 59 | 1032.5 |
| 20260503182259 | 52 | 289 | 11.0 | 29.0 | 0.00 | 0.00 | 0.00 | 59 | 1032.3 |
| 20260503181755 | 52 | 264 | 10.0 | 16.0 | 0.00 | 0.00 | 0.00 | 59 | 1032.4 |
| 20260503181253 | 52 | 263 | 10.0 | 29.0 | 0.00 | 0.00 | 0.00 | 56 | 1032.6 |
| 20260503180749 | 53 | 267 | 8.0 | 23.0 | 0.00 | 0.00 | 0.00 | 56 | 1032.4 |
| 20260503180247 | 53 | 274 | 9.0 | 24.0 | 0.00 | 0.00 | 0.00 | 55 | 1032.4 |
| 20260503175743 | 54 | 255 | 15.0 | 19.0 | 0.00 | 0.00 | 0.00 | 53 | 1032.4 |
| 20260503175242 | 54 | 245 | 6.0 | 17.0 | 0.00 | 0.00 | 0.00 | 51 | 1032.7 |
| 20260503174737 | 53 | 271 | 5.0 | 19.0 | 0.00 | 0.00 | 0.00 | 51 | 1032.7 |
| 20260503174236 | 53 | 263 | 7.0 | 23.0 | 0.00 | 0.00 | 0.00 | 48 | 1032.7 |
| 20260503173736 | 54 | 279 | 5.0 | 15.0 | 0.00 | 0.00 | 0.00 | 48 | 1032.5 |
| 20260503173232 | 54 | 295 | 10.0 | 12.0 | 0.00 | 0.00 | 0.00 | 47 | 1032.7 |
| 20260503172729 | 53 | 243 | 10.0 | 24.0 | 0.00 | 0.00 | 0.00 | 46 | 1032.6 |
| 20260503172226 | 53 | 291 | 6.0 | 18.0 | 0.00 | 0.00 | 0.00 | 48 | 1033.0 |
| 20260503171722 | 53 | 246 | 8.0 | 15.0 | 0.00 | 0.00 | 0.00 | 49 | 1032.8 |
| 20260503171221 | 53 | 291 | 8.0 | 14.0 | 0.00 | 0.00 | 0.00 | 47 | 1033.2 |
| 20260503170718 | 52 | 257 | 7.0 | 15.0 | 0.00 | 0.00 | 0.00 | 49 | 1033.1 |
| 20260503170214 | 53 | 259 | 13.0 | 17.0 | 0.00 | 0.00 | 0.00 | 46 | 1033.1 |
| 20260503160135 | 49 | 257 | 11.0 | 19.0 | 0.00 | 0.00 | 0.00 | 48 | 1033.9 |
| 20260503150605 | 48 | 273 | 4.0 | 18.0 | 0.00 | 0.00 | 0.00 | 71 | 1034.4 |
| 20260503130955 | 46 | 264 | 8.0 | 16.0 | 0.00 | 0.00 | 0.00 | 75 | 1034.7 |
| 20260503130453 | 46 | 268 | 12.0 | 27.0 | 0.00 | 0.00 | 0.00 | 75 | 1034.5 |
| 20260503110337 | 39 | 232 | 4.0 | 7.0 | 0.00 | 0.00 | 0.00 | 79 | 1034.5 |
| 20260503090223 | 37 | 246 | 2.0 | 2.0 | 0.00 | 0.00 | 0.00 | 84 | 1034.5 |
| 20260503081151 | 37 | 230 | 3.0 | 4.0 | 0.00 | 0.00 | 0.00 | 85 | 1034.9 |
| 20260503080646 | 37 | 180 | 0.0 | 5.0 | 0.00 | 0.00 | 0.00 | 85 | 1035.0 |
| 20260503080144 | 37 | 228 | 3.0 | 4.0 | 0.00 | 0.00 | 0.00 | 85 | 1034.9 |
| 20260503072620 | 39 | 218 | 3.0 | 5.0 | 0.00 | 0.00 | 0.00 | 85 | 1034.8 |
| 20260503072117 | 40 | 261 | 3.0 | 5.0 | 0.00 | 0.00 | 0.00 | 84 | 1034.9 |
| 20260503071614 | 40 | 291 | 3.0 | 5.0 | 0.00 | 0.00 | 0.00 | 83 | 1034.8 |
| 20260503071111 | 40 | 249 | 2.0 | 7.0 | 0.00 | 0.00 | 0.00 | 83 | 1034.8 |
| 20260503070608 | 40 | 274 | 4.0 | 4.0 | 0.00 | 0.00 | 0.00 | 83 | 1034.8 |
| 20260503070106 | 40 | 326 | 3.0 | 7.0 | 0.00 | 0.00 | 0.00 | 83 | 1034.9 |
| 20260503055026 | 41 | 287 | 2.0 | 8.0 | 0.00 | 0.00 | 0.00 | 83 | 1035.3 |
| 20260503054522 | 41 | 290 | 5.0 | 7.0 | 0.00 | 0.00 | 0.00 | 83 | 1035.0 |
| 20260503054020 | 41 | 264 | 3.0 | 9.0 | 0.00 | 0.00 | 0.00 | 84 | 1035.1 |
| 20260503053517 | 41 | 291 | 3.0 | 9.0 | 0.00 | 0.00 | 0.00 | 83 | 1035.2 |
| 20260503053015 | 41 | 277 | 4.0 | 8.0 | 0.00 | 0.00 | 0.00 | 83 | 1035.0 |
| 20260503052512 | 41 | 276 | 5.0 | 10.0 | 0.00 | 0.00 | 0.00 | 84 | 1035.1 |
| 20260503052008 | 41 | 242 | 0.0 | 11.0 | 0.00 | 0.00 | 0.00 | 85 | 1034.7 |
| 20260503051503 | 40 | 244 | 3.0 | 5.0 | 0.00 | 0.00 | 0.00 | 85 | 1034.9 |
| 20260503051001 | 41 | 264 | 9.0 | 11.0 | 0.00 | 0.00 | 0.00 | 85 | 1035.3 |
| 20260503050456 | 40 | 257 | 5.0 | 7.0 | 0.00 | 0.00 | 0.00 | 85 | 1035.1 |
| 20260503045955 | 41 | 272 | 3.0 | 7.0 | 0.00 | 0.00 | 0.00 | 84 | 1035.4 |
| 20260503045452 | 41 | 271 | 4.0 | 9.0 | 0.00 | 0.00 | 0.00 | 84 | 1035.2 |
| 20260503044949 | 40 | 285 | 3.0 | 9.0 | 0.00 | 0.00 | 0.00 | 85 | 1035.3 |
| 20260503044445 | 40 | 285 | 3.0 | 10.0 | 0.00 | 0.00 | 0.00 | 85 | 1035.2 |
| 20260503043943 | 40 | 246 | 4.0 | 5.0 | 0.00 | 0.00 | 0.00 | 85 | 1035.6 |
| 20260503043439 | 40 | 297 | 3.0 | 6.0 | 0.00 | 0.00 | 0.00 | 85 | 1035.4 |
| 20260503042935 | 41 | 236 | 10.0 | 10.0 | 0.00 | 0.00 | 0.00 | 84 | 1035.5 |
| 20260503042432 | 40 | 234 | 2.0 | 7.0 | 0.00 | 0.00 | 0.00 | 84 | 1035.3 |
| 20260503041929 | 40 | 267 | 4.0 | 6.0 | 0.00 | 0.00 | 0.00 | 84 | 1035.5 |
| 20260503041425 | 40 | 303 | 0.0 | 8.0 | 0.00 | 0.00 | 0.00 | 84 | 1035.5 |
| 20260503040923 | 41 | 269 | 4.0 | 7.0 | 0.00 | 0.00 | 0.00 | 83 | 1035.5 |
| 20260503040420 | 41 | 266 | 4.0 | 8.0 | 0.00 | 0.00 | 0.00 | 83 | 1035.6 |
| 20260503035918 | 41 | 259 | 3.0 | 8.0 | 0.00 | 0.00 | 0.00 | 84 | 1035.6 |
| 20260503035414 | 41 | 214 | 5.0 | 7.0 | 0.00 | 0.00 | 0.00 | 84 | 1035.4 |
| 20260503034912 | 41 | 228 | 5.0 | 8.0 | 0.00 | 0.00 | 0.00 | 84 | 1035.4 |
| 20260503034409 | 41 | 242 | 3.0 | 5.0 | 0.00 | 0.00 | 0.00 | 84 | 1035.7 |
| 20260503033906 | 41 | 269 | 2.0 | 6.0 | 0.00 | 0.00 | 0.00 | 83 | 1035.6 |
| 20260503033404 | 41 | 259 | 4.0 | 7.0 | 0.00 | 0.00 | 0.00 | 83 | 1035.7 |
| 20260503032901 | 41 | 285 | 3.0 | 5.0 | 0.00 | 0.00 | 0.00 | 82 | 1035.7 |
| 20260503032400 | 41 | 304 | 3.0 | 8.0 | 0.00 | 0.00 | 0.00 | 82 | 1035.4 |
| 20260503031857 | 41 | 255 | 4.0 | 7.0 | 0.00 | 0.00 | 0.00 | 81 | 1035.7 |
| 20260503031355 | 41 | 254 | 3.0 | 7.0 | 0.00 | 0.00 | 0.00 | 81 | 1035.8 |
| 20260503030851 | 41 | 255 | 6.0 | 9.0 | 0.00 | 0.00 | 0.00 | 81 | 1035.5 |
| 20260503030347 | 41 | 236 | 3.0 | 7.0 | 0.00 | 0.00 | 0.00 | 81 | 1035.7 |
| 20260503025844 | 41 | 274 | 2.0 | 7.0 | 0.00 | 0.00 | 0.00 | 81 | 1036.0 |
| 20260503025341 | 41 | 274 | 3.0 | 7.0 | 0.00 | 0.00 | 0.00 | 81 | 1035.8 |
| 20260503024838 | 41 | 244 | 5.0 | 8.0 | 0.00 | 0.00 | 0.00 | 81 | 1035.9 |
| 20260503024335 | 41 | 254 | 4.0 | 6.0 | 0.00 | 0.00 | 0.00 | 81 | 1035.8 |
| 20260503023832 | 41 | 269 | 2.0 | 7.0 | 0.00 | 0.00 | 0.00 | 80 | 1035.8 |
| 20260503023329 | 41 | 255 | 5.0 | 9.0 | 0.00 | 0.00 | 0.00 | 81 | 1036.0 |
| 20260503022826 | 41 | 279 | 0.0 | 6.0 | 0.00 | 0.00 | 0.00 | 82 | 1036.1 |
| 20260503022325 | 41 | 249 | 4.0 | 4.0 | 0.00 | 0.00 | 0.00 | 81 | 1036.1 |
| 20260503021822 | 41 | 263 | 4.0 | 8.0 | 0.00 | 0.00 | 0.00 | 81 | 1036.0 |
| 20260503021319 | 41 | 226 | 3.0 | 5.0 | 0.00 | 0.00 | 0.00 | 81 | 1036.1 |
| 20260503020816 | 41 | 339 | 1.0 | 9.0 | 0.00 | 0.00 | 0.00 | 80 | 1036.1 |
| 20260503020314 | 41 | 263 | 5.0 | 10.0 | 0.00 | 0.00 | 0.00 | 79 | 1036.2 |
| 20260503015810 | 41 | 261 | 4.0 | 8.0 | 0.00 | 0.00 | 0.00 | 80 | 1036.2 |
| 20260503015307 | 41 | 251 | 4.0 | 7.0 | 0.00 | 0.00 | 0.00 | 81 | 1036.1 |
| 20260503014803 | 41 | 289 | 7.0 | 11.0 | 0.00 | 0.00 | 0.00 | 82 | 1036.1 |
| 20260503014301 | 41 | 293 | 2.0 | 4.0 | 0.00 | 0.00 | 0.00 | 82 | 1036.1 |
| 20260503013758 | 41 | 231 | 0.0 | 9.0 | 0.00 | 0.00 | 0.00 | 81 | 1036.2 |
| 20260503013255 | 41 | 285 | 3.0 | 8.0 | 0.00 | 0.00 | 0.00 | 81 | 1036.3 |
| 20260503012752 | 41 | 278 | 3.0 | 6.0 | 0.00 | 0.00 | 0.00 | 81 | 1036.2 |
| 20260503012250 | 41 | 230 | 5.0 | 7.0 | 0.00 | 0.00 | 0.00 | 80 | 1036.1 |
| 20260503011746 | 41 | 310 | 3.0 | 11.0 | 0.00 | 0.00 | 0.00 | 80 | 1036.1 |
| 20260503011243 | 41 | 259 | 4.0 | 7.0 | 0.00 | 0.00 | 0.00 | 80 | 1036.1 |
| 20260503010739 | 41 | 280 | 4.0 | 6.0 | 0.00 | 0.00 | 0.00 | 80 | 1036.1 |
| 20260503010236 | 41 | 257 | 3.0 | 9.0 | 0.00 | 0.00 | 0.00 | 80 | 1036.1 |
| 20260503005734 | 41 | 266 | 4.0 | 7.0 | 0.00 | 0.00 | 0.00 | 80 | 1036.0 |
| 20260503005231 | 41 | 223 | 2.0 | 6.0 | 0.00 | 0.00 | 0.00 | 79 | 1036.2 |
| 20260503004727 | 41 | 277 | 7.0 | 10.0 | 0.00 | 0.00 | 0.00 | 79 | 1035.8 |
| 20260503004226 | 41 | 259 | 5.0 | 7.0 | 0.00 | 0.00 | 0.00 | 79 | 1036.0 |
| 20260503003722 | 41 | 262 | 4.0 | 10.0 | 0.00 | 0.00 | 0.00 | 79 | 1035.8 |
| 20260503003219 | 41 | 260 | 4.0 | 11.0 | 0.00 | 0.00 | 0.00 | 78 | 1036.0 |
| 20260503002716 | 41 | 262 | 3.0 | 9.0 | 0.00 | 0.00 | 0.00 | 79 | 1035.9 |
| 20260503002213 | 41 | 268 | 4.0 | 8.0 | 0.00 | 0.00 | 0.00 | 79 | 1036.0 |
| 20260503001709 | 41 | 272 | 6.0 | 8.0 | 0.00 | 0.00 | 0.00 | 78 | 1036.1 |
| 20260503001205 | 41 | 283 | 3.0 | 7.0 | 0.00 | 0.00 | 0.00 | 79 | 1035.9 |
| 20260503000703 | 41 | 257 | 5.0 | 12.0 | 0.00 | 0.00 | 0.00 | 79 | 1036.0 |
| 20260503000201 | 41 | 285 | 5.0 | 10.0 | 0.00 | 0.00 | 0.00 | 78 | 1035.9 |
| 20260502235657 | 41 | 249 | 7.0 | 10.0 | 0.00 | 0.00 | 0.00 | 78 | 1035.8 |
| 20260502235155 | 41 | 274 | 4.0 | 10.0 | 0.00 | 0.00 | 0.00 | 78 | 1035.9 |
| 20260502234651 | 41 | 266 | 4.0 | 9.0 | 0.00 | 0.00 | 0.00 | 78 | 1035.8 |
| 20260502234149 | 41 | 271 | 4.0 | 7.0 | 0.00 | 0.00 | 0.00 | 77 | 1035.8 |